| time (UTC) | temp F | wind direction | speed knots | gust knots | rain 1hr in | rain 24hr in | rain mn in | humidity % | barometer mb |
| 20260504110612 | 51 | 223 | 1.7 | 5.2 | 0.00 | 0.00 | 0.00 | 70 | 1018.0 |
| 20260504110116 | 51 | 185 | 0.9 | 5.2 | 0.00 | 0.00 | 0.00 | 71 | 1018.0 |
| 20260504100211 | 52 | 231 | 1.7 | 9.6 | 0.00 | 0.00 | 0.00 | 72 | 1018.0 |
| 20260504081537 | 52 | 215 | 1.7 | 4.3 | 0.00 | 0.00 | 0.00 | 69 | 1017.9 |
| 20260504081227 | 52 | 232 | 1.7 | 3.5 | 0.00 | 0.00 | 0.00 | 69 | 1018.0 |
| 20260504080506 | 52 | 212 | 1.7 | 7.0 | 0.00 | 0.00 | 0.00 | 70 | 1018.0 |
| 20260504070117 | 51 | 146 | 3.5 | 3.5 | 0.00 | 0.00 | 0.00 | 72 | 1018.5 |
| 20260504060233 | 48 | 196 | 0.0 | 1.7 | 0.00 | 0.00 | 0.00 | 75 | 1018.2 |
| 20260504050332 | 42 | 196 | 0.9 | 1.7 | 0.00 | 0.00 | 0.00 | 89 | 1018.2 |
| 20260504045830 | 42 | 81 | 0.0 | 1.7 | 0.00 | 0.00 | 0.00 | 88 | 1018.3 |
| 20260504045300 | 41 | 188 | 0.0 | 1.7 | 0.00 | 0.00 | 0.00 | 89 | 1018.3 |
| 20260504044950 | 41 | 70 | 0.0 | 1.7 | 0.00 | 0.00 | 0.00 | 90 | 1018.4 |
| 20260504044232 | 40 | 107 | 0.9 | 1.7 | 0.00 | 0.00 | 0.00 | 91 | 1018.2 |
| 20260504043920 | 40 | 48 | 0.0 | 1.7 | 0.00 | 0.00 | 0.00 | 91 | 1018.1 |
| 20260504043130 | 40 | 75 | 0.0 | 1.7 | 0.00 | 0.00 | 0.00 | 90 | 1018.2 |
| 20260504042629 | 40 | 57 | 0.0 | 1.7 | 0.00 | 0.00 | 0.00 | 90 | 1018.4 |
| 20260504042059 | 40 | 69 | 0.9 | 1.7 | 0.00 | 0.00 | 0.00 | 91 | 1018.4 |
| 20260504041530 | 40 | 211 | 0.9 | 1.7 | 0.00 | 0.00 | 0.00 | 91 | 1018.4 |
| 20260504041309 | 40 | 54 | 0.0 | 1.7 | 0.00 | 0.00 | 0.00 | 92 | 1018.1 |
| 20260504040458 | 40 | 64 | 0.9 | 1.7 | 0.00 | 0.00 | 0.00 | 93 | 1018.3 |
| 20260504035929 | 39 | 50 | 0.9 | 1.7 | 0.00 | 0.00 | 0.00 | 94 | 1018.2 |
| 20260504035429 | 39 | 92 | 0.9 | 1.7 | 0.00 | 0.00 | 0.00 | 94 | 1018.4 |
| 20260504034858 | 39 | 115 | 0.0 | 1.7 | 0.00 | 0.00 | 0.00 | 95 | 1018.2 |
| 20260504034329 | 39 | 44 | 0.9 | 1.7 | 0.00 | 0.00 | 0.00 | 95 | 1017.9 |
| 20260504033829 | 38 | 72 | 1.7 | 1.7 | 0.00 | 0.00 | 0.00 | 95 | 1018.0 |
| 20260504033259 | 38 | 72 | 0.9 | 1.7 | 0.00 | 0.00 | 0.00 | 95 | 1018.1 |
| 20260504032728 | 38 | 77 | 0.0 | 1.7 | 0.00 | 0.00 | 0.00 | 95 | 1017.8 |
| 20260504032227 | 38 | 116 | 1.7 | 1.7 | 0.00 | 0.00 | 0.00 | 95 | 1018.0 |
| 20260504031127 | 38 | 105 | 0.0 | 1.7 | 0.00 | 0.00 | 0.00 | 94 | 1017.9 |
| 20260504030557 | 38 | 64 | 1.7 | 2.6 | 0.00 | 0.00 | 0.00 | 93 | 1017.6 |
| 20260504025527 | 39 | 42 | 0.0 | 2.6 | 0.00 | 0.00 | 0.00 | 92 | 1017.8 |
| 20260504024957 | 38 | 78 | 1.7 | 2.6 | 0.00 | 0.00 | 0.00 | 92 | 1017.7 |
| 20260504024457 | 38 | 55 | 0.9 | 2.6 | 0.00 | 0.00 | 0.00 | 92 | 1017.7 |
| 20260504024145 | 39 | 71 | 0.0 | 1.7 | 0.00 | 0.00 | 0.00 | 92 | 1017.5 |
| 20260504023357 | 39 | 140 | 0.9 | 2.6 | 0.00 | 0.00 | 0.00 | 91 | 1017.7 |
| 20260504022856 | 39 | 70 | 0.9 | 2.6 | 0.00 | 0.00 | 0.00 | 91 | 1017.6 |
| 20260504022327 | 40 | 105 | 0.0 | 1.7 | 0.00 | 0.00 | 0.00 | 90 | 1017.7 |
| 20260504021826 | 39 | 93 | 0.0 | 1.7 | 0.00 | 0.00 | 0.00 | 90 | 1017.8 |
| 20260504021308 | 39 | 62 | 0.9 | 1.7 | 0.00 | 0.00 | 0.00 | 89 | 1017.7 |
| 20260504020725 | 40 | 125 | 1.7 | 1.7 | 0.00 | 0.00 | 0.00 | 88 | 1017.6 |
| 20260504020226 | 40 | 92 | 0.0 | 1.7 | 0.00 | 0.00 | 0.00 | 87 | 1017.7 |
| 20260504015914 | 40 | 81 | 0.0 | 1.7 | 0.00 | 0.00 | 0.00 | 87 | 1017.5 |
| 20260504015126 | 41 | 105 | 0.0 | 1.7 | 0.00 | 0.00 | 0.00 | 86 | 1017.7 |
| 20260504014627 | 40 | 124 | 0.0 | 1.7 | 0.00 | 0.00 | 0.00 | 85 | 1017.4 |
| 20260504014056 | 41 | 98 | 0.0 | 1.7 | 0.00 | 0.00 | 0.00 | 84 | 1017.3 |
| 20260504013525 | 41 | 93 | 0.9 | 2.6 | 0.00 | 0.00 | 0.00 | 82 | 1017.5 |
| 20260504013029 | 42 | 106 | 1.7 | 2.6 | 0.00 | 0.00 | 0.00 | 82 | 1017.5 |
| 20260504012507 | 42 | 119 | 0.0 | 1.7 | 0.00 | 0.00 | 0.00 | 81 | 1017.3 |
| 20260504012141 | 43 | 100 | 0.9 | 2.6 | 0.00 | 0.00 | 0.00 | 81 | 1017.3 |
| 20260504011424 | 43 | 56 | 0.9 | 2.6 | 0.00 | 0.00 | 0.00 | 79 | 1017.4 |
| 20260504010854 | 43 | 120 | 0.9 | 1.7 | 0.00 | 0.00 | 0.00 | 79 | 1017.2 |
| 20260504010325 | 43 | 99 | 0.0 | 1.7 | 0.00 | 0.00 | 0.00 | 78 | 1017.3 |
| 20260504005823 | 44 | 77 | 0.0 | 1.7 | 0.00 | 0.00 | 0.00 | 75 | 1017.3 |
| 20260504005253 | 44 | 76 | 0.9 | 1.7 | 0.00 | 0.00 | 0.00 | 74 | 1017.2 |
| 20260504004723 | 45 | 130 | 0.0 | 1.7 | 0.00 | 0.00 | 0.00 | 73 | 1017.2 |
| 20260504004222 | 46 | 90 | 0.0 | 1.7 | 0.00 | 0.00 | 0.00 | 72 | 1017.1 |
| 20260504003653 | 46 | 127 | 0.0 | 1.7 | 0.00 | 0.00 | 0.00 | 70 | 1017.0 |
| 20260504003122 | 46 | 123 | 0.0 | 1.7 | 0.00 | 0.00 | 0.00 | 71 | 1017.0 |
| 20260504002622 | 47 | 139 | 0.0 | 1.7 | 0.00 | 0.00 | 0.00 | 67 | 1016.8 |
| 20260504002053 | 47 | 72 | 0.0 | 1.7 | 0.00 | 0.00 | 0.00 | 67 | 1016.8 |
| 20260504001524 | 49 | 133 | 0.0 | 1.7 | 0.00 | 0.00 | 0.00 | 65 | 1016.9 |
| 20260504001024 | 49 | 116 | 0.0 | 1.7 | 0.00 | 0.00 | 0.00 | 64 | 1016.7 |
| 20260504000451 | 50 | 106 | 0.9 | 1.7 | 0.00 | 0.00 | 0.00 | 63 | 1016.7 |
| 20260503235921 | 51 | 138 | 0.0 | 1.7 | 0.00 | 0.00 | 0.00 | 59 | 1016.7 |
| 20260503235422 | 52 | 108 | 0.9 | 1.7 | 0.00 | 0.00 | 0.00 | 58 | 1016.6 |
| 20260503234852 | 53 | 180 | 1.7 | 1.7 | 0.00 | 0.00 | 0.00 | 56 | 1016.7 |
| 20260503234321 | 54 | 136 | 0.0 | 1.7 | 0.00 | 0.00 | 0.00 | 52 | 1016.4 |
| 20260503233822 | 55 | 180 | 0.0 | 1.7 | 0.00 | 0.00 | 0.00 | 51 | 1016.2 |
| 20260503233250 | 57 | 105 | 0.0 | 2.6 | 0.00 | 0.00 | 0.00 | 48 | 1016.5 |
| 20260503232720 | 58 | 121 | 0.0 | 4.3 | 0.00 | 0.00 | 0.00 | 45 | 1016.2 |
| 20260503232444 | 59 | 197 | 1.7 | 5.2 | 0.00 | 0.00 | 0.00 | 37 | 1016.3 |
| 20260503231650 | 60 | 298 | 2.6 | 5.2 | 0.00 | 0.00 | 0.00 | 36 | 1016.2 |
| 20260503230620 | 60 | 307 | 2.6 | 6.1 | 0.00 | 0.00 | 0.00 | 36 | 1016.4 |
| 20260503225519 | 60 | 352 | 0.0 | 8.7 | 0.00 | 0.00 | 0.00 | 36 | 1016.4 |
| 20260503225019 | 61 | 213 | 3.5 | 9.6 | 0.00 | 0.00 | 0.00 | 34 | 1016.1 |
| 20260503224449 | 61 | 144 | 3.5 | 9.6 | 0.00 | 0.00 | 0.00 | 34 | 1016.4 |
| 20260503223918 | 61 | 319 | 4.3 | 7.0 | 0.00 | 0.00 | 0.00 | 35 | 1016.4 |
| 20260503223421 | 61 | 244 | 0.9 | 9.6 | 0.00 | 0.00 | 0.00 | 33 | 1016.3 |
| 20260503222848 | 61 | 308 | 0.0 | 9.6 | 0.00 | 0.00 | 0.00 | 33 | 1016.2 |
| 20260503222321 | 62 | 195 | 1.7 | 9.6 | 0.00 | 0.00 | 0.00 | 34 | 1016.2 |
| 20260503221820 | 63 | 291 | 3.5 | 7.8 | 0.00 | 0.00 | 0.00 | 32 | 1016.1 |
| 20260503221247 | 62 | 30 | 3.5 | 7.8 | 0.00 | 0.00 | 0.00 | 32 | 1016.1 |
| 20260503220724 | 63 | 231 | 0.9 | 8.7 | 0.00 | 0.00 | 0.00 | 34 | 1016.5 |
| 20260503220444 | 63 | 352 | 1.7 | 8.7 | 0.00 | 0.00 | 0.00 | 33 | 1016.4 |
| 20260503215648 | 63 | 302 | 1.7 | 8.7 | 0.00 | 0.00 | 0.00 | 33 | 1016.4 |
| 20260503215119 | 62 | 146 | 2.6 | 8.7 | 0.00 | 0.00 | 0.00 | 33 | 1016.3 |
| 20260503214841 | 62 | 234 | 3.5 | 6.1 | 0.00 | 0.00 | 0.00 | 34 | 1016.2 |
| 20260503214047 | 63 | 294 | 0.0 | 10.4 | 0.00 | 0.00 | 0.00 | 32 | 1016.3 |
| 20260503213520 | 62 | 268 | 4.3 | 12.2 | 0.00 | 0.00 | 0.00 | 34 | 1016.2 |
| 20260503213017 | 62 | 231 | 5.2 | 12.2 | 0.00 | 0.00 | 0.00 | 33 | 1016.3 |
| 20260503212447 | 62 | 218 | 5.2 | 13.0 | 0.00 | 0.00 | 0.00 | 34 | 1016.3 |
| 20260503211416 | 62 | 276 | 4.3 | 17.4 | 0.00 | 0.00 | 0.00 | 34 | 1016.4 |
| 20260503210846 | 61 | 204 | 5.2 | 8.7 | 0.00 | 0.00 | 0.00 | 35 | 1016.4 |
| 20260503210345 | 62 | 280 | 3.5 | 8.7 | 0.00 | 0.00 | 0.00 | 33 | 1016.4 |
| 20260503210037 | 62 | 230 | 7.0 | 12.2 | 0.00 | 0.00 | 0.00 | 37 | 1016.4 |
| 20260503205507 | 62 | 266 | 2.6 | 12.2 | 0.00 | 0.00 | 0.00 | 34 | 1016.3 |
| 20260503204745 | 62 | 51 | 1.7 | 11.3 | 0.00 | 0.00 | 0.00 | 35 | 1016.3 |
| 20260503204215 | 61 | 273 | 5.2 | 13.9 | 0.00 | 0.00 | 0.00 | 35 | 1016.4 |
| 20260503203646 | 61 | 238 | 2.6 | 14.8 | 0.00 | 0.00 | 0.00 | 36 | 1016.7 |
| 20260503203411 | 60 | 352 | 5.2 | 14.8 | 0.00 | 0.00 | 0.00 | 39 | 1016.6 |
| 20260503202616 | 61 | 193 | 3.5 | 12.2 | 0.00 | 0.00 | 0.00 | 36 | 1016.9 |
| 20260503202045 | 61 | 354 | 3.5 | 12.2 | 0.00 | 0.00 | 0.00 | 35 | 1016.7 |
| 20260503201544 | 60 | 204 | 7.8 | 12.2 | 0.00 | 0.00 | 0.00 | 37 | 1016.9 |
| 20260503201016 | 61 | 249 | 4.3 | 13.9 | 0.00 | 0.00 | 0.00 | 35 | 1016.8 |
| 20260503200444 | 60 | 245 | 5.2 | 13.9 | 0.00 | 0.00 | 0.00 | 35 | 1016.9 |
| 20260503195944 | 60 | 222 | 5.2 | 13.9 | 0.00 | 0.00 | 0.00 | 38 | 1017.0 |
| 20260503195413 | 61 | 204 | 6.1 | 14.8 | 0.00 | 0.00 | 0.00 | 38 | 1017.3 |
| 20260503194844 | 60 | 269 | 1.7 | 14.8 | 0.00 | 0.00 | 0.00 | 38 | 1017.0 |
| 20260503194344 | 60 | 251 | 2.6 | 13.9 | 0.00 | 0.00 | 0.00 | 36 | 1017.1 |
| 20260503193813 | 60 | 291 | 8.7 | 11.3 | 0.00 | 0.00 | 0.00 | 36 | 1017.1 |
| 20260503193243 | 61 | 289 | 1.7 | 13.0 | 0.00 | 0.00 | 0.00 | 36 | 1017.3 |
| 20260503192743 | 59 | 327 | 11.3 | 19.1 | 0.00 | 0.00 | 0.00 | 38 | 1017.2 |
| 20260503192213 | 58 | 346 | 4.3 | 19.1 | 0.00 | 0.00 | 0.00 | 36 | 1017.5 |
| 20260503191644 | 59 | 15 | 3.5 | 16.5 | 0.00 | 0.00 | 0.00 | 37 | 1017.5 |
| 20260503191143 | 59 | 260 | 4.3 | 16.5 | 0.00 | 0.00 | 0.00 | 37 | 1017.4 |
| 20260503190612 | 59 | 287 | 8.7 | 12.2 | 0.00 | 0.00 | 0.00 | 37 | 1017.7 |
| 20260503190055 | 59 | 286 | 9.6 | 15.6 | 0.00 | 0.00 | 0.00 | 41 | 1017.8 |
| 20260503185543 | 60 | 271 | 2.6 | 20.0 | 0.00 | 0.00 | 0.00 | 39 | 1017.9 |
| 20260503185012 | 58 | 207 | 6.1 | 20.0 | 0.00 | 0.00 | 0.00 | 41 | 1017.8 |
| 20260503184700 | 59 | 300 | 4.3 | 12.2 | 0.00 | 0.00 | 0.00 | 39 | 1018.0 |
| 20260503183943 | 60 | 204 | 5.2 | 14.8 | 0.00 | 0.00 | 0.00 | 41 | 1018.1 |
| 20260503183411 | 58 | 290 | 1.7 | 14.8 | 0.00 | 0.00 | 0.00 | 38 | 1017.9 |
| 20260503182840 | 59 | 32 | 3.5 | 11.3 | 0.00 | 0.00 | 0.00 | 39 | 1018.1 |
| 20260503182341 | 58 | 221 | 8.7 | 14.8 | 0.00 | 0.00 | 0.00 | 37 | 1018.0 |
| 20260503181811 | 58 | 355 | 1.7 | 14.8 | 0.00 | 0.00 | 0.00 | 41 | 1018.2 |
| 20260503181241 | 57 | 209 | 6.1 | 13.0 | 0.00 | 0.00 | 0.00 | 38 | 1018.2 |
| 20260503180740 | 58 | 264 | 2.6 | 13.0 | 0.00 | 0.00 | 0.00 | 40 | 1018.0 |
| 20260503180211 | 57 | 290 | 3.5 | 14.8 | 0.00 | 0.00 | 0.00 | 40 | 1018.1 |
| 20260503175641 | 57 | 330 | 3.5 | 14.8 | 0.00 | 0.00 | 0.00 | 42 | 1018.3 |
| 20260503175139 | 58 | 218 | 2.6 | 16.5 | 0.00 | 0.00 | 0.00 | 39 | 1018.2 |
| 20260503174610 | 57 | 15 | 5.2 | 16.5 | 0.00 | 0.00 | 0.00 | 40 | 1018.3 |
| 20260503174040 | 57 | 287 | 3.5 | 14.8 | 0.00 | 0.00 | 0.00 | 38 | 1018.2 |
| 20260503173804 | 57 | 282 | 2.6 | 13.9 | 0.00 | 0.00 | 0.00 | 39 | 1018.3 |
| 20260503173009 | 56 | 315 | 3.5 | 13.9 | 0.00 | 0.00 | 0.00 | 40 | 1018.0 |
| 20260503172439 | 57 | 2 | 2.6 | 11.3 | 0.00 | 0.00 | 0.00 | 40 | 1018.0 |
| 20260503171940 | 56 | 201 | 1.7 | 13.0 | 0.00 | 0.00 | 0.00 | 41 | 1018.3 |
| 20260503171409 | 56 | 348 | 7.0 | 15.6 | 0.00 | 0.00 | 0.00 | 38 | 1018.3 |
| 20260503170840 | 56 | 242 | 7.0 | 15.6 | 0.00 | 0.00 | 0.00 | 39 | 1018.6 |
| 20260503170338 | 55 | 5 | 7.8 | 15.6 | 0.00 | 0.00 | 0.00 | 39 | 1018.3 |
| 20260503150824 | 53 | 296 | 3.5 | 12.2 | 0.00 | 0.00 | 0.00 | 41 | 1019.1 |
| 20260503150119 | 52 | 210 | 2.6 | 13.0 | 0.00 | 0.00 | 0.00 | 43 | 1019.2 |
| 20260503140203 | 50 | 11 | 5.2 | 18.2 | 0.00 | 0.00 | 0.00 | 49 | 1019.4 |
| 20260503131402 | 48 | 230 | 3.5 | 13.0 | 0.00 | 0.00 | 0.00 | 56 | 1019.6 |
| 20260503130902 | 47 | 224 | 10.4 | 13.0 | 0.00 | 0.00 | 0.00 | 56 | 1019.4 |
| 20260503130331 | 47 | 270 | 6.1 | 13.0 | 0.00 | 0.00 | 0.00 | 56 | 1019.6 |